When you browse on this site, cookies collect data to enhance your experience and personalize the content and advertising you see.
Visit our Privacy Policy to learn more. By continuing to use the site, you agree to this use of cookies and data.

Météo par heure à Gorlovka

Ce jour, 13 Août, Jeudi

Heure Température Précipitation Vent Pression Humidité
00:00 +18°C° 0 mm 3 m/s 734 mmHg 68%
01:00 +17°C° 0 mm 3 m/s 735 mmHg 69%
02:00 +17°C° 0 mm 3 m/s 735 mmHg 70%
03:00 +16°C° 0 mm 3 m/s 734 mmHg 72%
04:00 +16°C° 0 mm 3 m/s 735 mmHg 74%
05:00 +14°C° 0 mm 3 m/s 735 mmHg 75%
06:00 +14°C° 0 mm 3 m/s 735 mmHg 76%
07:00 +16°C° 0 mm 3 m/s 735 mmHg 69%
08:00 +18°C° 0 mm 3 m/s 735 mmHg 61%
09:00 +19°C° 0 mm 3 m/s 735 mmHg 51%
10:00 +20°C° 0 mm 4 m/s 735 mmHg 47%
11:00 +21°C° 0 mm 4 m/s 735 mmHg 43%
12:00 +23°C° 0 mm 4 m/s 735 mmHg 39%
13:00 +23°C° 0 mm 5 m/s 735 mmHg 40%
14:00 +23°C° 0 mm 5 m/s 735 mmHg 40%
15:00 +23°C° 0 mm 5 m/s 735 mmHg 40%
16:00 +22°C° 0 mm 5 m/s 735 mmHg 41%
17:00 +22°C° 0 mm 5 m/s 735 mmHg 43%
18:00 +21°C° 0 mm 5 m/s 735 mmHg 44%
19:00 +20°C° 0 mm 4 m/s 735 mmHg 49%
20:00 +18°C° 0 mm 4 m/s 735 mmHg 54%
21:00 +17°C° 0 mm 3 m/s 736 mmHg 60%
22:00 +16°C° 0 mm 3 m/s 736 mmHg 62%
23:00 +15°C° 0 mm 2 m/s 736 mmHg 64%

Demain, 14 Août, Vendredi

Heure Température Précipitation Vent Pression Humidité
00:00 +15°C° 0 mm 2 m/s 736 mmHg 67%
01:00 +15°C° 0 mm 2 m/s 736 mmHg 68%
02:00 +14°C° 0 mm 2 m/s 736 mmHg 69%
03:00 +14°C° 0 mm 2 m/s 736 mmHg 70%
04:00 +14°C° 0 mm 2 m/s 736 mmHg 71%
05:00 +14°C° 0 mm 2 m/s 736 mmHg 72%
06:00 +14°C° 0 mm 2 m/s 736 mmHg 73%
07:00 +15°C° 0 mm 2 m/s 736 mmHg 66%
08:00 +17°C° 0 mm 2 m/s 736 mmHg 60%
09:00 +19°C° 0 mm 3 m/s 736 mmHg 53%
10:00 +19°C° 0 mm 3 m/s 736 mmHg 50%
11:00 +20°C° 0 mm 3 m/s 736 mmHg 47%
12:00 +20°C° 0 mm 4 m/s 736 mmHg 45%
13:00 +20°C° 0 mm 4 m/s 736 mmHg 44%
14:00 +20°C° 0 mm 4 m/s 736 mmHg 44%
15:00 +21°C° 0 mm 4 m/s 736 mmHg 43%
16:00 +20°C° 0 mm 4 m/s 736 mmHg 43%
17:00 +20°C° 0 mm 4 m/s 736 mmHg 42%
18:00 +20°C° 0 mm 4 m/s 736 mmHg 42%
19:00 +19°C° 0 mm 3 m/s 736 mmHg 47%
20:00 +18°C° 0 mm 3 m/s 736 mmHg 51%
21:00 +16°C° 0 mm 3 m/s 736 mmHg 56%
22:00 +16°C° 0 mm 3 m/s 736 mmHg 61%
23:00 +14°C° 0 mm 3 m/s 737 mmHg 66%

Après-demain, 15 Août, Samedi

Heure Température Précipitation Vent Pression Humidité
00:00 +14°C° 0 mm 2 m/s 737 mmHg 72%
01:00 +14°C° 0 mm 2 m/s 737 mmHg 76%
02:00 +13°C° 0 mm 2 m/s 737 mmHg 80%
03:00 +12°C° 0 mm 2 m/s 737 mmHg 84%
04:00 +12°C° 0 mm 2 m/s 737 mmHg 83%
05:00 +12°C° 0 mm 2 m/s 737 mmHg 82%
06:00 +12°C° 0 mm 2 m/s 737 mmHg 82%
07:00 +13°C° 0 mm 3 m/s 738 mmHg 72%
08:00 +16°C° 0 mm 3 m/s 738 mmHg 61%
09:00 +17°C° 0 mm 4 m/s 738 mmHg 51%
10:00 +19°C° 0 mm 4 m/s 738 mmHg 47%
11:00 +20°C° 0 mm 4 m/s 738 mmHg 42%
12:00 +21°C° 0 mm 4 m/s 738 mmHg 37%
13:00 +21°C° 0 mm 4 m/s 738 mmHg 35%
14:00 +22°C° 0 mm 5 m/s 738 mmHg 34%
15:00 +23°C° 0 mm 5 m/s 738 mmHg 32%
16:00 +22°C° 0 mm 5 m/s 738 mmHg 34%
17:00 +21°C° 0 mm 5 m/s 738 mmHg 35%
18:00 +21°C° 0 mm 4 m/s 738 mmHg 37%
19:00 +19°C° 0 mm 4 m/s 738 mmHg 41%
20:00 +18°C° 0 mm 3 m/s 738 mmHg 45%
21:00 +16°C° 0 mm 3 m/s 738 mmHg 49%
22:00 +16°C° 0 mm 2 m/s 738 mmHg 51%
23:00 +15°C° 0 mm 2 m/s 738 mmHg 53%

16 Août, Dimanche

Heure Température Précipitation Vent Pression Humidité
00:00 +15°C° 0 mm 2 m/s 738 mmHg 55%
01:00 +14°C° 0 mm 1 m/s 738 mmHg 57%
02:00 +14°C° 0 mm 1 m/s 738 mmHg 59%
03:00 +14°C° 0 mm 1 m/s 738 mmHg 61%
04:00 +13°C° 0 mm 1 m/s 738 mmHg 63%
05:00 +13°C° 0 mm 1 m/s 738 mmHg 64%
06:00 +13°C° 0 mm 2 m/s 738 mmHg 66%
07:00 +15°C° 0 mm 2 m/s 738 mmHg 60%
08:00 +17°C° 0 mm 2 m/s 739 mmHg 53%
09:00 +19°C° 0 mm 3 m/s 739 mmHg 47%
10:00 +20°C° 0 mm 3 m/s 739 mmHg 43%
11:00 +22°C° 0 mm 3 m/s 739 mmHg 39%
12:00 +24°C° 0 mm 3 m/s 739 mmHg 36%
13:00 +24°C° 0 mm 3 m/s 739 mmHg 35%
14:00 +24°C° 0 mm 3 m/s 739 mmHg 34%
15:00 +25°C° 0 mm 4 m/s 739 mmHg 34%
16:00 +25°C° 0 mm 3 m/s 738 mmHg 35%
17:00 +25°C° 0 mm 3 m/s 738 mmHg 36%
18:00 +24°C° 0 mm 3 m/s 738 mmHg 37%
19:00 +22°C° 0 mm 3 m/s 738 mmHg 42%
20:00 +20°C° 0 mm 2 m/s 738 mmHg 46%
21:00 +19°C° 0 mm 2 m/s 738 mmHg 51%
22:00 +18°C° 0 mm 2 m/s 738 mmHg 53%
23:00 +19°C° 0 mm 1 m/s 738 mmHg 55%

17 Août, Lundi

Heure Température Précipitation Vent Pression Humidité
00:00 +19°C° 0 mm 1 m/s 738 mmHg 57%
01:00 +18°C° 0 mm 1 m/s 738 mmHg 60%
02:00 +18°C° 0 mm 1 m/s 738 mmHg 63%
03:00 +16°C° 0 mm 1 m/s 738 mmHg 66%
04:00 +16°C° 0 mm 1 m/s 738 mmHg 69%
05:00 +16°C° 0 mm 1 m/s 738 mmHg 71%
06:00 +16°C° 0 mm 1 m/s 738 mmHg 74%
07:00 +18°C° 0 mm 2 m/s 738 mmHg 68%
08:00 +20°C° 0 mm 2 m/s 738 mmHg 63%
09:00 +23°C° 0 mm 2 m/s 739 mmHg 57%
10:00 +24°C° 0 mm 3 m/s 739 mmHg 52%
11:00 +26°C° 0 mm 3 m/s 738 mmHg 46%
12:00 +27°C° 0 mm 3 m/s 738 mmHg 41%
13:00 +28°C° 0 mm 3 m/s 738 mmHg 39%
14:00 +29°C° 0 mm 3 m/s 738 mmHg 37%
15:00 +29°C° 0 mm 3 m/s 738 mmHg 34%
16:00 +29°C° 0 mm 3 m/s 737 mmHg 36%
17:00 +29°C° 0 mm 3 m/s 737 mmHg 37%
18:00 +28°C° 0 mm 2 m/s 737 mmHg 39%
19:00 +27°C° 0 mm 2 m/s 737 mmHg 43%
20:00 +25°C° 0 mm 2 m/s 737 mmHg 48%
21:00 +23°C° 0 mm 1 m/s 736 mmHg 52%
22:00 +23°C° 0 mm 1 m/s 736 mmHg 54%
23:00 +22°C° 0 mm 1 m/s 736 mmHg 55%

18 Août, Mardi

Heure Température Précipitation Vent Pression Humidité
00:00 +22°C° 0 mm 1 m/s 736 mmHg 57%
01:00 +21°C° 0 mm 1 m/s 736 mmHg 59%
02:00 +19°C° 0 mm 0 m/s 736 mmHg 61%
03:00 +18°C° 0 mm 0 m/s 736 mmHg 63%
04:00 +18°C° 0 mm 0 m/s 736 mmHg 63%
05:00 +18°C° 0 mm 0 m/s 735 mmHg 64%
06:00 +18°C° 0 mm 0 m/s 735 mmHg 65%
07:00 +20°C° 0 mm 0 m/s 735 mmHg 58%
08:00 +23°C° 0 mm 0 m/s 735 mmHg 51%
09:00 +25°C° 0 mm 0 m/s 735 mmHg 44%
10:00 +26°C° 0 mm 0 m/s 735 mmHg 40%
11:00 +27°C° 0 mm 0 m/s 735 mmHg 35%
12:00 +31°C° 0 mm 1 m/s 735 mmHg 31%
13:00 +31°C° 0 mm 1 m/s 734 mmHg 31%
14:00 +31°C° 0 mm 1 m/s 734 mmHg 30%
15:00 +31°C° 0 mm 1 m/s 734 mmHg 30%
16:00 +30°C° 0 mm 1 m/s 734 mmHg 31%
17:00 +30°C° 0 mm 1 m/s 733 mmHg 32%
18:00 +30°C° 0 mm 1 m/s 733 mmHg 33%
19:00 +28°C° 0 mm 1 m/s 733 mmHg 36%
20:00 +27°C° 0 mm 1 m/s 733 mmHg 39%
21:00 +25°C° 0 mm 1 m/s 733 mmHg 42%
22:00 +25°C° 0 mm 1 m/s 733 mmHg 43%
23:00 +24°C° 0 mm 1 m/s 733 mmHg 44%
Voir plus